TimeEST,TemperatureF,Dew PointF,Humidity,Sea Level PressureIn,VisibilityMPH,Wind Direction,Wind SpeedMPH,Gust SpeedMPH,PrecipitationIn,Events,Conditions,WindDirDegrees,DateUTC
12:34 AM,51.8,51.8,100,29.86,3.0,West,15.0,-,0.30,Rain,Rain,260,2011-11-29 05:34:00
12:45 AM,51.8,50.0,94,29.86,2.0,WSW,24.2,28.8,0.37,Rain,Heavy Rain,250,2011-11-29 05:45:00
12:52 AM,51.8,48.2,88,29.86,1.8,West,21.9,28.8,0.41,Rain,Heavy Rain,260,2011-11-29 05:52:00
12:54 AM,51.1,48.9,92,29.86,1.8,WSW,18.4,-,0.42,Rain,Heavy Rain,250,2011-11-29 05:54:00
1:16 AM,51.8,48.2,88,29.85,3.0,West,10.4,20.7,0.07,Rain,Rain,260,2011-11-29 06:16:00
1:54 AM,50.0,48.9,96,29.86,8.0,WSW,10.4,-,0.09,Rain,Light Rain,250,2011-11-29 06:54:00
2:03 AM,50.0,48.2,94,29.85,2.0,WSW,16.1,23.0,0.06,Rain,Heavy Rain,250,2011-11-29 07:03:00
2:05 AM,50.0,48.2,94,29.86,1.8,WSW,15.0,23.0,0.08,Rain,Heavy Rain,250,2011-11-29 07:05:00
2:08 AM,50.0,48.2,94,29.86,1.5,WSW,11.5,23.0,0.11,Rain,Heavy Rain,250,2011-11-29 07:08:00
2:12 AM,50.0,48.2,94,29.86,2.0,WSW,10.4,-,0.12,Rain,Heavy Rain,250,2011-11-29 07:12:00
2:32 AM,48.2,48.2,100,29.86,4.0,WSW,9.2,18.4,0.20,Rain,Rain,250,2011-11-29 07:32:00
2:54 AM,48.9,46.9,93,29.86,5.0,SW,9.2,-,0.28,Rain,Light Rain,220,2011-11-29 07:54:00
3:54 AM,48.9,46.9,93,29.86,10.0,SW,6.9,-,0.15,Rain,Light Rain,220,2011-11-29 08:54:00
4:01 AM,48.2,46.4,93,29.86,5.0,SW,6.9,-,0.01,Rain,Rain,220,2011-11-29 09:01:00
4:09 AM,48.2,46.4,93,29.85,3.0,South,3.5,-,0.03,Rain,Rain,180,2011-11-29 09:09:00
4:24 AM,48.2,48.2,100,29.85,2.0,South,3.5,-,0.10,Rain,Heavy Rain,180,2011-11-29 09:24:00
4:38 AM,48.2,46.4,93,29.85,6.0,South,4.6,-,0.12,Rain,Light Rain,190,2011-11-29 09:38:00
4:54 AM,48.9,46.9,93,29.86,4.0,South,5.8,-,0.15,Rain,Rain,190,2011-11-29 09:54:00
5:02 AM,48.2,46.4,93,29.88,3.0,SSW,5.8,-,0.02,Rain,Rain,200,2011-11-29 10:02:00
5:11 AM,48.2,46.4,93,29.87,2.5,SSW,8.1,-,0.06,Rain,Rain,210,2011-11-29 10:11:00
5:19 AM,48.2,46.4,93,29.88,4.0,SSW,5.8,-,0.07,Rain,Rain,200,2011-11-29 10:19:00
5:30 AM,48.2,46.4,93,29.87,6.0,SSW,4.6,-,0.08,Rain,Light Rain,200,2011-11-29 10:30:00
5:54 AM,48.0,46.0,93,29.88,10.0,SW,8.1,-,0.09,Rain,Light Rain,220,2011-11-29 10:54:00
6:06 AM,48.2,46.4,93,29.89,10.0,SW,5.8,-,0.00,Rain,Light Rain,220,2011-11-29 11:06:00
7:18 AM,46.4,44.6,93,29.91,10.0,SW,6.9,-,0.00,,Overcast,230,2011-11-29 12:18:00
7:54 AM,46.9,45.0,93,29.90,10.0,SW,4.6,-,0.00,,Overcast,220,2011-11-29 12:54:00
8:17 AM,46.4,44.6,93,29.91,10.0,SW,5.8,-,N/A,,Overcast,220,2011-11-29 13:17:00
8:54 AM,46.9,45.0,93,29.91,10.0,SW,4.6,-,N/A,,Overcast,220,2011-11-29 13:54:00
9:05 AM,48.2,44.6,87,29.91,10.0,Variable,4.6,-,N/A,,Mostly Cloudy,0,2011-11-29 14:05:00
9:14 AM,48.2,44.6,87,29.92,10.0,SW,6.9,-,N/A,,Overcast,230,2011-11-29 14:14:00
9:54 AM,48.9,44.1,83,29.91,10.0,SW,8.1,-,N/A,,Overcast,220,2011-11-29 14:54:00
10:29 AM,48.2,42.8,82,29.92,10.0,SW,8.1,-,N/A,,Mostly Cloudy,230,2011-11-29 15:29:00
10:54 AM,50.0,42.1,74,29.91,10.0,SW,15.0,-,N/A,,Overcast,230,2011-11-29 15:54:00
11:54 AM,51.1,43.0,74,29.88,10.0,WSW,10.4,-,N/A,,Overcast,240,2011-11-29 16:54:00
12:54 PM,52.0,43.0,71,29.84,10.0,SW,8.1,-,N/A,,Mostly Cloudy,230,2011-11-29 17:54:00
1:54 PM,53.1,42.1,66,29.82,10.0,SSW,8.1,-,N/A,,Mostly Cloudy,210,2011-11-29 18:54:00
2:54 PM,53.1,43.0,69,29.81,10.0,SW,8.1,-,N/A,,Overcast,220,2011-11-29 19:54:00
3:54 PM,54.0,42.1,64,29.80,10.0,SW,10.4,-,N/A,,Overcast,220,2011-11-29 20:54:00
4:54 PM,52.0,42.1,69,29.82,10.0,SW,15.0,20.7,N/A,,Overcast,230,2011-11-29 21:54:00
5:54 PM,51.1,39.0,63,29.84,10.0,WSW,16.1,20.7,N/A,,Overcast,240,2011-11-29 22:54:00
6:54 PM,46.9,37.9,71,29.88,10.0,West,15.0,19.6,N/A,,Mostly Cloudy,260,2011-11-29 23:54:00
7:54 PM,45.0,37.0,74,29.91,10.0,WSW,11.5,-,N/A,,Clear,250,2011-11-30 00:54:00
8:54 PM,44.1,35.1,71,29.93,10.0,West,16.1,23.0,N/A,,Scattered Clouds,260,2011-11-30 01:54:00
9:01 PM,44.6,35.6,71,29.93,10.0,WSW,16.1,23.0,N/A,,Mostly Cloudy,250,2011-11-30 02:01:00
9:11 PM,44.6,35.6,71,29.93,10.0,West,15.0,-,N/A,,Overcast,260,2011-11-30 02:11:00
9:54 PM,43.0,35.1,74,29.92,10.0,West,10.4,-,N/A,,Unknown,270,2011-11-30 02:54:00
10:54 PM,41.0,35.1,79,29.91,10.0,SW,4.6,-,N/A,,Clear,220,2011-11-30 03:54:00
11:54 PM,39.9,34.0,79,29.90,10.0,SSW,6.9,-,N/A,,Clear,210,2011-11-30 04:54:00